Previsão horária em Centralnyy

Hoje, 3 Agosto, Terça-feira

Tempo Temperatura Precipitação Vento Pressão Humidade
00:00 +19°C° 1.5 mm 2 m/s 736 mmHg 92%
01:00 +19°C° 0 mm 2 m/s 736 mmHg 93%
02:00 +18°C° 0 mm 3 m/s 736 mmHg 94%
03:00 +18°C° 0 mm 3 m/s 737 mmHg 94%
04:00 +18°C° 0 mm 3 m/s 737 mmHg 95%
05:00 +18°C° 0 mm 3 m/s 737 mmHg 95%
06:00 +18°C° 0 mm 2 m/s 737 mmHg 95%
07:00 +19°C° 0 mm 3 m/s 738 mmHg 89%
08:00 +20°C° 0 mm 3 m/s 738 mmHg 82%
09:00 +21°C° 0 mm 4 m/s 738 mmHg 74%
10:00 +22°C° 0 mm 4 m/s 739 mmHg 67%
11:00 +23°C° 0 mm 4 m/s 739 mmHg 61%
12:00 +25°C° 0 mm 4 m/s 739 mmHg 54%
13:00 +25°C° 0 mm 4 m/s 739 mmHg 52%
14:00 +25°C° 0 mm 4 m/s 739 mmHg 50%
15:00 +26°C° 0 mm 4 m/s 739 mmHg 48%
16:00 +25°C° 0 mm 5 m/s 739 mmHg 50%
17:00 +23°C° 0 mm 5 m/s 739 mmHg 51%
18:00 +23°C° 0 mm 5 m/s 739 mmHg 53%
19:00 +21°C° 0 mm 4 m/s 740 mmHg 57%
20:00 +20°C° 0 mm 3 m/s 740 mmHg 61%
21:00 +19°C° 0 mm 2 m/s 740 mmHg 65%
22:00 +19°C° 0 mm 2 m/s 741 mmHg 67%
23:00 +18°C° 0 mm 2 m/s 741 mmHg 68%

Amanhã, 4 Agosto, Quarta-feira

Tempo Temperatura Precipitação Vento Pressão Humidade
00:00 +17°C° 0 mm 2 m/s 741 mmHg 70%
01:00 +17°C° 0 mm 2 m/s 741 mmHg 69%
02:00 +17°C° 0 mm 2 m/s 742 mmHg 69%
03:00 +17°C° 0 mm 2 m/s 742 mmHg 68%
04:00 +16°C° 0 mm 2 m/s 742 mmHg 71%
05:00 +15°C° 0 mm 2 m/s 742 mmHg 73%
06:00 +15°C° 0 mm 2 m/s 742 mmHg 76%
07:00 +17°C° 0 mm 2 m/s 743 mmHg 68%
08:00 +19°C° 0 mm 3 m/s 743 mmHg 60%
09:00 +21°C° 0 mm 3 m/s 743 mmHg 53%
10:00 +22°C° 0 mm 3 m/s 743 mmHg 49%
11:00 +23°C° 0 mm 4 m/s 743 mmHg 44%
12:00 +25°C° 0 mm 4 m/s 743 mmHg 40%
13:00 +25°C° 0 mm 4 m/s 743 mmHg 41%
14:00 +25°C° 0 mm 4 m/s 743 mmHg 41%
15:00 +23°C° 0 mm 4 m/s 743 mmHg 42%
16:00 +24°C° 0 mm 3 m/s 743 mmHg 44%
17:00 +22°C° 0 mm 3 m/s 743 mmHg 47%
18:00 +22°C° 0 mm 3 m/s 744 mmHg 50%
19:00 +21°C° 0 mm 2 m/s 744 mmHg 53%
20:00 +20°C° 0 mm 2 m/s 744 mmHg 57%
21:00 +19°C° 0 mm 2 m/s 744 mmHg 60%
22:00 +18°C° 0 mm 2 m/s 744 mmHg 63%
23:00 +18°C° 0 mm 1 m/s 744 mmHg 66%

Depois de amanhã, 5 Agosto, Quinta-feira

Tempo Temperatura Precipitação Vento Pressão Humidade
00:00 +16°C° 0 mm 1 m/s 744 mmHg 70%
01:00 +15°C° 0 mm 1 m/s 744 mmHg 71%
02:00 +15°C° 0 mm 1 m/s 744 mmHg 72%
03:00 +15°C° 0 mm 1 m/s 744 mmHg 73%
04:00 +15°C° 0 mm 1 m/s 744 mmHg 72%
05:00 +15°C° 0 mm 1 m/s 744 mmHg 71%
06:00 +16°C° 0 mm 1 m/s 744 mmHg 70%
07:00 +19°C° 0 mm 1 m/s 744 mmHg 63%
08:00 +19°C° 0 mm 2 m/s 744 mmHg 57%
09:00 +21°C° 0 mm 2 m/s 744 mmHg 50%
10:00 +23°C° 0 mm 2 m/s 744 mmHg 47%
11:00 +24°C° 0 mm 2 m/s 744 mmHg 43%
12:00 +25°C° 0 mm 2 m/s 744 mmHg 39%
13:00 +25°C° 0 mm 2 m/s 744 mmHg 42%
14:00 +24°C° 0 mm 3 m/s 744 mmHg 44%
15:00 +24°C° 0 mm 3 m/s 744 mmHg 47%
16:00 +23°C° 0 mm 2 m/s 743 mmHg 50%
17:00 +21°C° 0 mm 2 m/s 743 mmHg 52%
18:00 +21°C° 0 mm 1 m/s 743 mmHg 55%
19:00 +21°C° 0 mm 1 m/s 743 mmHg 55%
20:00 +20°C° 0 mm 2 m/s 743 mmHg 55%
21:00 +20°C° 0 mm 2 m/s 743 mmHg 55%
22:00 +20°C° 0 mm 3 m/s 742 mmHg 56%
23:00 +20°C° 0 mm 3 m/s 742 mmHg 57%

6 Agosto, Sexta-feira

Tempo Temperatura Precipitação Vento Pressão Humidade
00:00 +20°C° 0 mm 4 m/s 742 mmHg 58%
01:00 +20°C° 0 mm 4 m/s 741 mmHg 57%
02:00 +20°C° 0 mm 3 m/s 741 mmHg 56%
03:00 +20°C° 0 mm 3 m/s 741 mmHg 55%
04:00 +20°C° 0 mm 3 m/s 741 mmHg 54%
05:00 +20°C° 0 mm 3 m/s 740 mmHg 53%
06:00 +20°C° 0 mm 4 m/s 740 mmHg 52%
07:00 +20°C° 0 mm 3 m/s 740 mmHg 52%
08:00 +20°C° 0 mm 3 m/s 740 mmHg 52%
09:00 +20°C° 0 mm 2 m/s 740 mmHg 53%
10:00 +23°C° 0 mm 2 m/s 740 mmHg 49%
11:00 +25°C° 0 mm 2 m/s 740 mmHg 45%
12:00 +27°C° 0 mm 2 m/s 740 mmHg 41%
13:00 +27°C° 0 mm 3 m/s 740 mmHg 43%
14:00 +27°C° 0 mm 3 m/s 740 mmHg 45%
15:00 +27°C° 0 mm 3 m/s 739 mmHg 47%
16:00 +27°C° 0 mm 3 m/s 739 mmHg 46%
17:00 +27°C° 0 mm 4 m/s 739 mmHg 45%
18:00 +28°C° 0 mm 4 m/s 739 mmHg 44%
19:00 +26°C° 0 mm 4 m/s 738 mmHg 47%
20:00 +25°C° 0 mm 4 m/s 738 mmHg 51%
21:00 +22°C° 0 mm 4 m/s 738 mmHg 54%
22:00 +22°C° 0 mm 4 m/s 738 mmHg 52%
23:00 +22°C° 0 mm 4 m/s 738 mmHg 50%

7 Agosto, Sábado

Tempo Temperatura Precipitação Vento Pressão Humidade
00:00 +23°C° 0 mm 4 m/s 738 mmHg 48%
01:00 +22°C° 0.1 mm 4 m/s 738 mmHg 50%
02:00 +21°C° 0.1 mm 3 m/s 738 mmHg 52%
03:00 +21°C° 0.1 mm 3 m/s 738 mmHg 54%
04:00 +21°C° 0 mm 3 m/s 738 mmHg 54%
05:00 +21°C° 0 mm 3 m/s 739 mmHg 54%
06:00 +20°C° 0 mm 3 m/s 739 mmHg 53%
07:00 +24°C° 0 mm 3 m/s 739 mmHg 48%
08:00 +26°C° 0 mm 3 m/s 739 mmHg 43%
09:00 +28°C° 0 mm 4 m/s 739 mmHg 38%
10:00 +30°C° 0 mm 4 m/s 739 mmHg 33%
11:00 +33°C° 0 mm 5 m/s 739 mmHg 29%
12:00 +35°C° 0 mm 5 m/s 739 mmHg 25%
13:00 +34°C° 0 mm 5 m/s 739 mmHg 27%
14:00 +33°C° 0 mm 5 m/s 739 mmHg 29%
15:00 +33°C° 0 mm 5 m/s 739 mmHg 31%
16:00 +32°C° 0 mm 4 m/s 739 mmHg 35%
17:00 +30°C° 0 mm 3 m/s 739 mmHg 40%
18:00 +29°C° 0 mm 2 m/s 739 mmHg 45%
19:00 +28°C° 0 mm 2 m/s 739 mmHg 46%
20:00 +27°C° 0 mm 3 m/s 739 mmHg 48%
21:00 +25°C° 0 mm 4 m/s 739 mmHg 49%
22:00 +25°C° 0 mm 4 m/s 739 mmHg 47%
23:00 +26°C° 0 mm 4 m/s 739 mmHg 44%

8 Agosto, Domingo

Tempo Temperatura Precipitação Vento Pressão Humidade
00:00 +26°C° 0 mm 5 m/s 740 mmHg 42%
01:00 +25°C° 0.1 mm 4 m/s 740 mmHg 46%
02:00 +23°C° 0.1 mm 4 m/s 740 mmHg 49%
03:00 +22°C° 0.1 mm 4 m/s 740 mmHg 53%
04:00 +22°C° 0 mm 4 m/s 740 mmHg 55%
05:00 +21°C° 0 mm 3 m/s 740 mmHg 58%
06:00 +21°C° 0 mm 3 m/s 740 mmHg 60%
07:00 +24°C° 0 mm 3 m/s 740 mmHg 54%
08:00 +26°C° 0 mm 3 m/s 740 mmHg 47%
09:00 +28°C° 0 mm 3 m/s 741 mmHg 41%
10:00 +29°C° 0 mm 4 m/s 741 mmHg 38%
11:00 +30°C° 0 mm 4 m/s 741 mmHg 36%
12:00 +32°C° 0 mm 4 m/s 741 mmHg 33%
13:00 +30°C° 0 mm 4 m/s 741 mmHg 39%
14:00 +28°C° 0 mm 4 m/s 742 mmHg 44%
15:00 +26°C° 0 mm 4 m/s 742 mmHg 50%
16:00 +26°C° 0 mm 4 m/s 742 mmHg 50%
17:00 +26°C° 0 mm 3 m/s 742 mmHg 49%
18:00 +26°C° 0 mm 3 m/s 742 mmHg 49%
19:00 +25°C° 0 mm 3 m/s 742 mmHg 52%
20:00 +24°C° 0 mm 3 m/s 742 mmHg 55%
21:00 +22°C° 0 mm 3 m/s 742 mmHg 58%
22:00 +21°C° 0 mm 3 m/s 742 mmHg 59%
23:00 +21°C° 0 mm 3 m/s 743 mmHg 61%
Mostrar mais

Necessitamos do seu Consentimento

A Meteoprog e os seus Fornecedores de Serviços podem armazenar e aceder a dados pessoais como cookies, identificadores do dispositivo ou outras tecnologias semelhantes existentes no seu dispositivo e processar estes dados para personalizar conteúdos e anúncios, assim como funcionalidades nas redes sociais e análise de tráfego.

  • Armazenar e/ou aceder a informações no seu dispositivo

    Os cookies, identificadores do dispositivo ou outras informações podem ser armazenados ou acedidos no seu dispositivo, para os fins acima indicados.

  • Anúncios e conteúdos personalizados, medição de anúncios e conteúdos, dados sobre o público-alvo e desenvolvimento de produtos

    Os anúncios e os conteúdos podem ser personalizados com base num perfil. Podem ser adicionados dados adicionais para uma maior personalização dos anúncios e dos conteúdos. A eficácia dos anúncios e dos conteúdos pode ser medida. Podem ser obtidas informações sobre o público que visualizou os anúncios e os conteúdos. Estes dados podem ser usados para desenvolver ou melhorar sistemas, softwares ou a experiência do utilizador.

Ao clicar em "Eu concordo”, permitirá o uso de cookies, identificadores do dispositivo e web beacons mencionados ou outras tecnologias semelhantes. As configurações do navegador do seu dispositivo podem ser alteradas.

Para certos fins, podem ser invocados interesses legítimos ao invés de consentimento. Pode ler mais informação sobre este assunto na nossa Política de Privacidade e Cookies.